• In Spain
  • List of Countries
  • For 7 days
  • Water Temperature
  • Satellite Maps
  • Weather Map
  • Weather Widgets
  • user-avatar
    Login

    Hourly Weather Córdoba

    Today, 17 October, Wednesday

    Time Temperature Precipitation Wind Pressure Humidity
    00:00 +24°C° 0 mm 2 mps 716 mmHg 47%
    01:00 +23°C° 0 mm 2 mps 716 mmHg 50%
    02:00 +23°C° 0 mm 2 mps 716 mmHg 53%
    03:00 +23°C° 0.2 mm 2 mps 717 mmHg 56%
    04:00 +21°C° 0.2 mm 2 mps 717 mmHg 59%
    05:00 +21°C° 0.2 mm 2 mps 717 mmHg 61%
    06:00 +24°C° 0 mm 3 mps 717 mmHg 56%
    07:00 +26°C° 0 mm 3 mps 718 mmHg 51%
    08:00 +28°C° 0 mm 3 mps 718 mmHg 45%
    09:00 +31°C° 0 mm 3 mps 718 mmHg 38%
    10:00 +34°C° 0 mm 4 mps 718 mmHg 30%
    11:00 +36°C° 0 mm 4 mps 719 mmHg 22%
    12:00 +37°C° 0 mm 4 mps 718 mmHg 20%
    13:00 +39°C° 0 mm 5 mps 718 mmHg 17%
    14:00 +40°C° 0 mm 5 mps 718 mmHg 15%
    15:00 +38°C° 0 mm 4 mps 717 mmHg 16%
    16:00 +37°C° 0 mm 4 mps 717 mmHg 17%
    17:00 +37°C° 0 mm 3 mps 717 mmHg 18%
    18:00 +34°C° 0.2 mm 3 mps 717 mmHg 28%
    19:00 +30°C° 0.2 mm 3 mps 718 mmHg 37%
    20:00 +27°C° 0.2 mm 3 mps 718 mmHg 46%
    21:00 +26°C° 0.9 mm 2 mps 718 mmHg 56%
    22:00 +25°C° 0.9 mm 2 mps 719 mmHg 65%
    23:00 +24°C° 0.9 mm 2 mps 719 mmHg 75%

    Tomorrow, 18 October, Thursday

    Time Temperature Precipitation Wind Pressure Humidity
    00:00 +24°C° 0.1 mm 1 mps 719 mmHg 76%
    01:00 +24°C° 0.1 mm 1 mps 719 mmHg 77%
    02:00 +23°C° 0.1 mm 1 mps 719 mmHg 78%
    03:00 +23°C° 0 mm 1 mps 719 mmHg 78%
    04:00 +23°C° 0 mm 1 mps 719 mmHg 79%
    05:00 +23°C° 0 mm 1 mps 719 mmHg 80%
    06:00 +24°C° 0.3 mm 2 mps 720 mmHg 75%
    07:00 +26°C° 0.3 mm 2 mps 720 mmHg 71%
    08:00 +27°C° 0.3 mm 3 mps 721 mmHg 66%
    09:00 +29°C° 0.5 mm 3 mps 721 mmHg 61%
    10:00 +30°C° 0.5 mm 3 mps 722 mmHg 55%
    11:00 +32°C° 0.5 mm 2 mps 722 mmHg 49%
    12:00 +34°C° 0.1 mm 3 mps 722 mmHg 45%
    13:00 +35°C° 0.1 mm 3 mps 721 mmHg 41%
    14:00 +35°C° 0.1 mm 3 mps 721 mmHg 37%
    15:00 +34°C° 3 mm 3 mps 721 mmHg 45%
    16:00 +31°C° 3 mm 3 mps 720 mmHg 53%
    17:00 +29°C° 3 mm 4 mps 720 mmHg 61%
    18:00 +28°C° 4.6 mm 3 mps 721 mmHg 68%
    19:00 +26°C° 4.6 mm 3 mps 721 mmHg 75%
    20:00 +25°C° 4.6 mm 3 mps 722 mmHg 82%
    21:00 +25°C° 2.2 mm 3 mps 723 mmHg 82%
    22:00 +25°C° 2.2 mm 2 mps 723 mmHg 82%
    23:00 +25°C° 2.2 mm 1 mps 724 mmHg 81%

    Day after tomorrow, 19 October, Friday

    Time Temperature Precipitation Wind Pressure Humidity
    00:00 +24°C° 1.1 mm 2 mps 724 mmHg 84%
    01:00 +24°C° 1.1 mm 2 mps 724 mmHg 86%
    02:00 +23°C° 1.1 mm 2 mps 724 mmHg 89%
    03:00 +23°C° 0.8 mm 2 mps 724 mmHg 90%
    04:00 +23°C° 0.8 mm 1 mps 724 mmHg 91%
    05:00 +22°C° 0.8 mm 1 mps 724 mmHg 92%
    06:00 +23°C° 0.4 mm 1 mps 724 mmHg 88%
    07:00 +24°C° 0.4 mm 2 mps 725 mmHg 84%
    08:00 +24°C° 0.4 mm 2 mps 725 mmHg 80%
    09:00 +25°C° 0.3 mm 3 mps 725 mmHg 77%
    10:00 +26°C° 0.3 mm 3 mps 725 mmHg 75%
    11:00 +26°C° 0.3 mm 4 mps 725 mmHg 73%
    12:00 +26°C° 0.5 mm 4 mps 725 mmHg 74%
    13:00 +26°C° 0.5 mm 4 mps 724 mmHg 75%
    14:00 +26°C° 0.5 mm 4 mps 723 mmHg 76%
    15:00 +26°C° 0.4 mm 4 mps 723 mmHg 76%
    16:00 +26°C° 0.4 mm 3 mps 723 mmHg 76%
    17:00 +26°C° 0.4 mm 3 mps 722 mmHg 77%
    18:00 +25°C° 0.7 mm 3 mps 723 mmHg 79%
    19:00 +24°C° 0.7 mm 2 mps 723 mmHg 82%
    20:00 +23°C° 0.7 mm 2 mps 723 mmHg 85%
    21:00 +23°C° 0.3 mm 2 mps 723 mmHg 83%
    22:00 +23°C° 0.3 mm 2 mps 724 mmHg 82%
    23:00 +23°C° 0.3 mm 2 mps 724 mmHg 80%

    20 October, Saturday

    Time Temperature Precipitation Wind Pressure Humidity
    00:00 +23°C° 0 mm 2 mps 724 mmHg 82%
    01:00 +21°C° 0 mm 2 mps 723 mmHg 84%
    02:00 +21°C° 0 mm 2 mps 723 mmHg 86%
    03:00 +20°C° 0.1 mm 3 mps 723 mmHg 87%
    04:00 +20°C° 0.1 mm 3 mps 723 mmHg 88%
    05:00 +20°C° 0.1 mm 3 mps 723 mmHg 89%
    06:00 +20°C° 0.1 mm 3 mps 723 mmHg 89%
    07:00 +20°C° 0.1 mm 4 mps 723 mmHg 89%
    08:00 +19°C° 0.1 mm 4 mps 724 mmHg 89%
    09:00 +19°C° 0.3 mm 3 mps 723 mmHg 89%
    10:00 +20°C° 0.3 mm 3 mps 723 mmHg 88%
    11:00 +20°C° 0.3 mm 3 mps 723 mmHg 88%
    12:00 +20°C° 0.4 mm 3 mps 722 mmHg 86%
    13:00 +20°C° 0.4 mm 3 mps 722 mmHg 85%
    14:00 +20°C° 0.4 mm 2 mps 721 mmHg 84%
    15:00 +20°C° 0.1 mm 2 mps 721 mmHg 83%
    16:00 +21°C° 0.1 mm 2 mps 720 mmHg 82%
    17:00 +21°C° 0.1 mm 2 mps 720 mmHg 81%
    18:00 +20°C° 0 mm 2 mps 720 mmHg 83%
    19:00 +20°C° 0 mm 2 mps 721 mmHg 84%
    20:00 +20°C° 0 mm 2 mps 721 mmHg 86%
    21:00 +21°C° 0 mm 1 mps 721 mmHg 86%
    22:00 +21°C° 0 mm 1 mps 721 mmHg 85%
    23:00 +21°C° 0 mm 1 mps 721 mmHg 85%

    21 October, Sunday

    Time Temperature Precipitation Wind Pressure Humidity
    00:00 +20°C° 0 mm 1 mps 721 mmHg 85%
    01:00 +20°C° 0 mm 1 mps 720 mmHg 86%
    02:00 +20°C° 0 mm 1 mps 720 mmHg 86%
    03:00 +20°C° 0.2 mm 1 mps 720 mmHg 87%
    04:00 +20°C° 0.2 mm 1 mps 720 mmHg 88%
    05:00 +20°C° 0.2 mm 1 mps 719 mmHg 90%
    06:00 +20°C° 0.3 mm 1 mps 720 mmHg 90%
    07:00 +21°C° 0.3 mm 1 mps 720 mmHg 89%
    08:00 +20°C° 0.3 mm 2 mps 720 mmHg 89%
    09:00 +21°C° 0.1 mm 2 mps 720 mmHg 87%
    10:00 +23°C° 0.1 mm 2 mps 720 mmHg 85%
    11:00 +22°C° 0.1 mm 3 mps 720 mmHg 83%
    12:00 +25°C° 0 mm 3 mps 719 mmHg 77%
    13:00 +26°C° 0 mm 3 mps 719 mmHg 72%
    14:00 +28°C° 0 mm 3 mps 719 mmHg 66%
    15:00 +28°C° 0.2 mm 3 mps 718 mmHg 68%
    16:00 +27°C° 0.2 mm 3 mps 718 mmHg 70%
    17:00 +27°C° 0.2 mm 3 mps 718 mmHg 71%
    18:00 +26°C° 0.2 mm 3 mps 719 mmHg 77%
    19:00 +25°C° 0.2 mm 2 mps 719 mmHg 83%
    20:00 +24°C° 0.2 mm 1 mps 720 mmHg 89%
    21:00 +24°C° 0.3 mm 1 mps 720 mmHg 91%
    22:00 +23°C° 0.3 mm 1 mps 720 mmHg 92%
    23:00 +23°C° 0.3 mm 2 mps 720 mmHg 94%

    22 October, Monday

    Time Temperature Precipitation Wind Pressure Humidity
    00:00 +23°C° 1.3 mm 2 mps 720 mmHg 94%
    01:00 +21°C° 1.3 mm 2 mps 720 mmHg 95%
    02:00 +21°C° 1.3 mm 2 mps 720 mmHg 95%
    03:00 +21°C° 1.1 mm 2 mps 720 mmHg 95%
    04:00 +21°C° 1.1 mm 3 mps 720 mmHg 95%
    05:00 +20°C° 1.1 mm 3 mps 721 mmHg 95%
    06:00 +20°C° 0.3 mm 4 mps 721 mmHg 94%
    07:00 +20°C° 0.3 mm 4 mps 721 mmHg 93%
    08:00 +20°C° 0.3 mm 5 mps 722 mmHg 91%
    09:00 +20°C° 0.5 mm 5 mps 722 mmHg 90%
    10:00 +19°C° 0.5 mm 5 mps 722 mmHg 89%
    11:00 +19°C° 0.5 mm 5 mps 722 mmHg 88%
    12:00 +19°C° 0.3 mm 5 mps 722 mmHg 88%
    13:00 +17°C° 0.3 mm 5 mps 722 mmHg 87%
    14:00 +17°C° 0.3 mm 5 mps 722 mmHg 87%
    15:00 +16°C° 0.1 mm 5 mps 722 mmHg 86%
    16:00 +16°C° 0.1 mm 5 mps 722 mmHg 86%
    17:00 +15°C° 0.1 mm 6 mps 722 mmHg 85%
    18:00 +15°C° 0 mm 6 mps 723 mmHg 85%
    19:00 +14°C° 0 mm 6 mps 724 mmHg 85%
    20:00 +14°C° 0 mm 6 mps 724 mmHg 84%
    21:00 +14°C° 0 mm 5 mps 725 mmHg 84%
    22:00 +13°C° 0 mm 5 mps 725 mmHg 84%
    23:00 +13°C° 0 mm 5 mps 726 mmHg 83%
    Show more